Regional Weather Roundup
Issued by NWS

Home | Current Version | Previous Version | Graphics & Text | Print | Product List | Glossary On
Versions: 1 2 3 4 5 6 7 8 9 10 11 12 13 14 15 16 17 18 19 20 21 22 23 24 25 26 27 28 29 30 31 32 33 34 35 36 37 38 39 40 41 42 43 44 45 46 47 48 49 50
000
ASUS43 KMKX 292013
RWRWI

WISCONSIN REGIONAL WEATHER ROUNDUP
NATIONAL WEATHER SERVICE MILWAUKEE/SULLIVAN WI
300 PM CDT FRI MAY 29 2015

NOTE: "FAIR" INDICATES FEW OR NO CLOUDS BELOW 12,000 FEET WITH NO
SIGNIFICANT WEATHER AND/OR OBSTRUCTIONS TO VISIBILITY.

WIZ001-002-006>008-014>016-023>028-292100-
NORTHWEST WISCONSIN

CITY           SKY/WX    TMP DP  RH WIND       PRES   REMARKS
SUPERIOR ARPT  CLOUDY    65  57  74 N10       29.92R
ASHLAND        CLOUDY    69  60  73 NW10      29.90R
HAYWARD        LGT RAIN  66  62  87 VRB5      29.90S
SIREN          LGT RAIN  65  64  94 CALM      29.91S
CUMBERLAND     RAIN      63  63 100 N7        29.90S
RICE LAKE      CLOUDY    68  64  89 S5        29.91S
CHETEK         HVY RAIN  64  63  96 CALM      29.89F VSB 1/2
LADYSMITH      LGT RAIN  69  64  85 SW3       29.91F
EAU CLAIRE     CLOUDY    70  64  81 S5        29.88F
MENOMONIE      RAIN      72  65  79 SW7       29.89F
NEW RICHMOND   CLOUDY    71  66  83 W8        29.89F
OSCEOLA        RAIN      65  65 100 N9        29.93S
$$

WIZ003>005-009-010-017-018-292100-
NORTH CENTRAL WISCONSIN

CITY           SKY/WX    TMP DP  RH WIND       PRES   REMARKS
MANITOWISH WTR CLOUDY    67  62  83 W8        29.90S
ARBOR VITAE    CLOUDY    67  64  91 SW3       29.91S
WOODRUFF       CLOUDY    67  64  91 SW3       29.91S
RHINELANDER    CLOUDY    71  61  70 SW10      29.91F
EAGLE RIVER    HVY RAIN  64  62  93 W12       29.91R
LAND O LAKES   LGT RAIN  65  63  93 SW5       29.91R
PHILLIPS       CLOUDY    68  63  83 SW5       29.90F
TOMAHAWK       CLOUDY    69  61  77 W6        29.92F
MEDFORD        CLOUDY    71  63  77 SW5       29.91F
MERRILL        CLOUDY    74  64  70 SW8       29.91F
$$

WIZ029-030-035-036-043>047-292100-
CENTRAL WISCONSIN

CITY           SKY/WX    TMP DP  RH WIND       PRES   REMARKS
WAUSAU         CLOUDY    75  62  64 VRB6      29.87F
MOSINEE        MOSUNNY   77  63  61 SW9       29.89F
MARSHFIELD     CLOUDY    77  63  61 W8        29.88F
STEVENS POINT  CLOUDY    76  61  59 S10       29.89F
WAUPACA        PTSUNNY   78  65  63 SW5       29.90F HX  80
WAUTOMA        NOT AVBL
WISC RAPIDS    CLOUDY    79  60  52 S9        29.89F HX  80
CAMP DOUGLAS   NOT AVBL
$$

WIZ011>013-019>022-031-037>040-048>050-292100-
NORTHEAST WISCONSIN

CITY           SKY/WX    TMP DP  RH WIND       PRES   REMARKS
ANTIGO         CLOUDY    74  64  71 SW13      29.92S
SHAWANO        CLOUDY    79  63  56 SW10G16   29.90F HX  81
OCONTO         CLOUDY    78  66  65 SW9G16    29.88F HX  80
STURGEON BAY   PTSUNNY   72  63  73 S15       29.93F
GREEN BAY      CLOUDY    78  65  63 SW10      29.89F HX  80
MANITOWOC      LGT RAIN  66  59  77 SE9       29.93F
APPLETON       NOT AVBL
CLINTONVILLE   PTSUNNY   77  61  57 SW10      29.90F
OSHKOSH        TSTM      70  64  81 W10G29    29.91F VSB 3/4
$$

WIZ032>034-041-042-053>061-292100-
SOUTHWEST WISCONSIN

CITY           SKY/WX    TMP DP  RH WIND       PRES   REMARKS
LA CROSSE      CLOUDY    76  65  68 SW7       29.87F
SPARTA         CLOUDY    78  60  53 S5        29.89F
VIROQUA        CLOUDY    77  62  59 SW8       29.91F
BOSCOBEL       PTSUNNY   80  62  54 SW12      29.89F HX  81
PRAIRIE DU CHI PTSUNNY   78  61  54 S7        29.89F HX  80
PLATTEVILLE    PTSUNNY   77  67  71 SW7       29.92F
$$

WIZ056-057-062-063-064-067-068-292100-
SOUTH CENTRAL WISCONSIN

CITY           SKY/WX    TMP DP  RH WIND       PRES   REMARKS
REEDSBURG      CLOUDY    77  67  72 S6        29.90F
BARABOO/DELLS  CLOUDY    77  65  65 SW6       29.91F
LONE ROCK      NOT AVBL
MINERAL POINT  PTSUNNY   79  66  65 SW9       29.92F HX  81
MADISON        PTSUNNY   79  65  62 S17       29.90F HX  81
MIDDLETON      PTSUNNY   79  62  55 SW12G17   29.91F HX  80
WATERTOWN      CLOUDY   N/A N/A N/A S5        29.92F
MONROE         PTSUNNY   75  66  73 S13       29.93F
JANESVILLE     LGT RAIN  72  70  94 SW10      29.93S FOG
$$

WIZ051-052-058>065-066-070>072-292100-
SOUTHEAST WISCONSIN

CITY           SKY/WX    TMP DP  RH WIND       PRES   REMARKS
MILWAUKEE      CLOUDY    74  63  68 SE13      29.92F
WAUKESHA       RAIN      72  66  83 SW5       29.95S FOG
MILWAUKEE/TIMM CLOUDY    77  61  57 S16       29.92F
RACINE         PTSUNNY   72  62  71 S15       29.94F
BURLINGTON     HVY RAIN  75  65  72 S10G17    29.93F
KENOSHA        CLOUDY    78  65  63 SE13G23   29.92F HX  80
FOND DU LAC    CLOUDY    76  65  68 S20       29.91F
SHEBOYGAN      LGT RAIN  68  64  87 S9        29.94F FOG
WEST BEND      HVY RAIN  70  64  83 W6        29.95S
JUNEAU         LGT RAIN  72  66  83 S13       29.94F
$$

LSZ147-162-292100-
LAKE SUPERIOR

STATION/POSITION TIME  TEMP    WIND        PRES    WAVE
                       AIR SEA DIR/SP/G            HT/PER
                 (UTC) (F)     (DEG/KT/KT) (MB)    (FT/S)
W MID LAKE BUOY  1850   41 37  280/ 12/ 14   N/A     1
DEVILS ISLAND    1900   45     240/  9/ 11   N/A
PORT WING        1900   51      CALM  /  2   N/A
SAXON HARBOR     1840   70     270/  2/  7   N/A
$$

LMZ867-665-643>646-292100-
LAKE MICHIGAN

STATION/POSITION TIME  TEMP    WIND        PRES    WAVE
                       AIR SEA DIR/SP/G            HT/PER
                 (UTC) (F)     (DEG/KT/KT) (MB)    (FT/S)
CHAMBERS ISLAND  1800   70     140/  5/ 10   N/A
N MID LAKE BUOY  1850   42 37  190/  8/ 10   N/A     1/ 3
NORTHPORT PIER   1900   62     140/ 10/ 16   N/A
SISTER BAY       1918   71     150/ 14/ 18   N/A
ALGOMA LAKESHORE 1823          160/  3/  4   N/A
KEWAUNEE LAKESHO 1900   51     180/ 11/ 14   N/A
SHEBOYGAN LAKESH 1900   54     170/ 18/ 20   N/A
PORT WASHINGTON  1900   60      CALM  /  4   N/A
ATWATER BUOY     1900   57     150/ 14/ 14   N/A
MILWAUKEE LAKESH 1900          140/ 14/ 15   N/A
S MID LAKE BUOY  1850   48 38  210/  8/ 10   N/A     0
KENOSHA   LAKESH 1900   61     170/ 11/ 14   N/A
$$

TC  - TEMPERATURE IN CELSIUS
VSB - VISIBILITY IN STATUTE MILES
WCI - WIND CHILL INDEX
HX  - HEAT INDEX




USA.gov is the U.S. government's official web portal to all federal, state and local government web resources and services.